This is the latest recevied weather packets stored in our database for station/object KC4JIR. If no packets are shown the sender has not sent any weather packets the latest 10 day(s).
| Time | Temp. | Humidity | Pressure | Rain* | Wind** | Luminosity | Snow |
|---|---|---|---|---|---|---|---|
| 1777569023 | 23.33° C | 73% | 1008.9 hPa | 0 mm | - | 295 W/m² | - |
| 1777568719 | 23.33° C | 73% | 1009 hPa | 0 mm | - | 353 W/m² | - |
| 1777568417 | 23.33° C | 73% | 1009 hPa | 0 mm | - | 282 W/m² | - |
| 1777568114 | 22.78° C | 73% | 1009.3 hPa | 0 mm | - | 244 W/m² | - |
| 1777567811 | 22.78° C | 72% | 1009.1 hPa | 0 mm | - | 203 W/m² | - |
| 1777567507 | 22.78° C | 71% | 1009 hPa | 0 mm | - | 142 W/m² | - |
| 1777567204 | 23.33° C | 75% | 1009.1 hPa | 0 mm | - | 169 W/m² | - |
| 1777566903 | 23.33° C | 75% | 1009 hPa | 0 mm | - | 169 W/m² | - |
| 1777566600 | 23.33° C | 74% | 1009 hPa | 0 mm | - | 184 W/m² | - |
| 1777566297 | 22.78° C | 75% | 1009.2 hPa | 0 mm | - | 214 W/m² | - |
| 1777565994 | 23.33° C | 73% | 1009.2 hPa | 0 mm | - | 230 W/m² | - |
| 1777565689 | 23.33° C | 74% | 1008.8 hPa | 0 mm | - | 236 W/m² | - |
| 1777565386 | 23.33° C | 76% | 1009 hPa | 0 mm | - | 235 W/m² | - |
| 1777565082 | 23.33° C | 76% | 1008.8 hPa | 0 mm | - | 235 W/m² | - |
| 1777564778 | 22.78° C | 75% | 1008.8 hPa | 0 mm | - | 350 W/m² | - |
| 1777564473 | 22.78° C | 75% | 1009 hPa | 0 mm | - | 350 W/m² | - |
| 1777564169 | 22.78° C | 76% | 1009 hPa | 0 mm | - | 278 W/m² | - |
| 1777563866 | 22.78° C | 76% | 1008.9 hPa | 0 mm | - | 278 W/m² | - |
| 1777563562 | 22.78° C | 75% | 1009 hPa | 0 mm | - | 289 W/m² | - |
| 1777563261 | 22.78° C | 75% | 1008.8 hPa | 0 mm | - | 289 W/m² | - |
| 1777562044 | 22.22° C | 80% | 1008.9 hPa | 0 mm | - | 164 W/m² | - |
| 1777561742 | 22.22° C | 80% | 1008.7 hPa | 0 mm | - | 164 W/m² | - |
| 1777561436 | 22.22° C | 80% | 1008.6 hPa | 0 mm | - | 164 W/m² | - |
| 1777561132 | 22.22° C | 79% | 1008.5 hPa | 0 mm | - | 169 W/m² | - |
| 1777560827 | 22.22° C | 81% | 1008.6 hPa | 0 mm | - | 151 W/m² | - |
* Rain latest hour (hover to see other rain measurements)
** Current wind speed in m/s (hover to see current wind gust speed)